This is the latest recevied weather packets stored in our database for station/object CT2IRJ-11. If no packets are shown the sender has not sent any weather packets the latest 10 day(s).
| Time | Temp. | Humidity | Pressure | Rain* | Wind** | Luminosity | Snow |
|---|---|---|---|---|---|---|---|
| 1777550310 | 20° C | 69% | 1016.9 hPa | 0 mm | - | 397 W/m² | - |
| 1777550012 | 19.44° C | 71% | 1017.3 hPa | 0 mm | - | 376 W/m² | - |
| 1777549710 | 18.89° C | 73% | 1017.6 hPa | 0 mm | - | 326 W/m² | - |
| 1777549410 | 18.89° C | 75% | 1017.3 hPa | 0 mm | - | 275 W/m² | - |
| 1777549110 | 18.33° C | 77% | 1017.3 hPa | 0 mm | - | 217 W/m² | - |
| 1777548810 | 18.33° C | 76% | 1017.6 hPa | 0 mm | - | 177 W/m² | - |
| 1777548510 | 17.78° C | 78% | 1017.3 hPa | 0 mm | - | 142 W/m² | - |
| 1777548210 | 17.78° C | 79% | 1017.3 hPa | 0 mm | - | 121 W/m² | - |
| 1777547910 | 17.22° C | 79% | 1017.6 hPa | 0 mm | - | 102 W/m² | - |
| 1777547610 | 17.78° C | 79% | 1017.3 hPa | 0 mm | - | 77 W/m² | - |
| 1777547310 | 17.78° C | 80% | 1017.3 hPa | 0 mm | - | 68 W/m² | - |
| 1777547011 | 17.78° C | 79% | 1017.3 hPa | 0 mm | - | 73 W/m² | - |
| 1777546709 | 17.78° C | 79% | 1017.3 hPa | 0 mm | - | 70 W/m² | - |
| 1777546410 | 17.78° C | 77% | 1017.3 hPa | 0 mm | - | 82 W/m² | - |
| 1777546109 | 17.22° C | 79% | 1017.3 hPa | 0 mm | - | 111 W/m² | - |
| 1777545810 | 17.78° C | 78% | 1016.9 hPa | 0 mm | - | 133 W/m² | - |
| 1777545509 | 17.22° C | 79% | 1017.3 hPa | 0 mm | - | 142 W/m² | - |
| 1777545210 | 17.22° C | 81% | 1017.3 hPa | 0 mm | - | 165 W/m² | - |
| 1777544910 | 17.22° C | 82% | 1017.3 hPa | 0 mm | - | 211 W/m² | - |
| 1777544610 | 17.22° C | 83% | 1017.3 hPa | 0 mm | - | 208 W/m² | - |
| 1777544312 | 17.22° C | 84% | 1017.6 hPa | 0 mm | - | 193 W/m² | - |
| 1777544010 | 17.22° C | 83% | 1017.3 hPa | 0 mm | - | 180 W/m² | - |
| 1777543709 | 17.78° C | 82% | 1017.3 hPa | 0 mm | - | 186 W/m² | - |
| 1777543410 | 17.22° C | 84% | 1017.3 hPa | 0 mm | - | 203 W/m² | - |
| 1777543110 | 17.22° C | 84% | 1017.3 hPa | 0 mm | - | 211 W/m² | - |
* Rain latest hour (hover to see other rain measurements)
** Current wind speed in m/s (hover to see current wind gust speed)